| time (UTC) | temp F | wind direction | speed MPH | gust MPH | rain 1hr in | rain 24hr in | rain mn in | humidity % | barometer mb |
| 20260510190346 | 83 | 208 | 2.0 | 5.0 | 0.00 | 0.00 | 0.00 | 37 | 1009.3 |
| 20260510185848 | 84 | 195 | 3.0 | 8.0 | 0.00 | 0.00 | 0.00 | 37 | 1009.2 |
| 20260510185345 | 85 | 173 | 3.0 | 10.0 | 0.00 | 0.00 | 0.00 | 38 | 1009.3 |
| 20260510184847 | 84 | 170 | 3.0 | 10.0 | 0.00 | 0.00 | 0.00 | 39 | 1009.2 |
| 20260510184346 | 83 | 210 | 2.0 | 8.0 | 0.00 | 0.00 | 0.00 | 39 | 1009.2 |
| 20260510183848 | 84 | 225 | 1.0 | 9.0 | 0.00 | 0.00 | 0.00 | 39 | 1009.3 |
| 20260510183347 | 85 | 234 | 2.0 | 9.0 | 0.00 | 0.00 | 0.00 | 38 | 1009.4 |
| 20260510182844 | 85 | 226 | 4.0 | 11.0 | 0.00 | 0.00 | 0.00 | 36 | 1009.3 |
| 20260510182343 | 86 | 290 | 3.0 | 11.0 | 0.00 | 0.00 | 0.00 | 36 | 1009.2 |
| 20260510181843 | 85 | 276 | 3.0 | 9.0 | 0.00 | 0.00 | 0.00 | 36 | 1009.3 |
| 20260510181342 | 85 | 246 | 2.0 | 8.0 | 0.00 | 0.00 | 0.00 | 36 | 1009.3 |
| 20260510180841 | 85 | 236 | 3.0 | 8.0 | 0.00 | 0.00 | 0.00 | 35 | 1009.4 |
| 20260510180341 | 84 | 184 | 3.0 | 8.0 | 0.00 | 0.00 | 0.00 | 36 | 1009.6 |
| 20260510175836 | 83 | 233 | 2.0 | 9.0 | 0.00 | 0.00 | 0.00 | 36 | 1009.6 |
| 20260510175337 | 85 | 339 | 2.0 | 9.0 | 0.00 | 0.00 | 0.00 | 36 | 1009.6 |
| 20260510174837 | 84 | 309 | 2.0 | 7.0 | 0.00 | 0.00 | 0.00 | 37 | 1009.8 |
| 20260510173835 | 84 | 283 | 3.0 | 8.0 | 0.00 | 0.00 | 0.00 | 38 | 1009.7 |
| 20260510173336 | 83 | 198 | 3.0 | 9.0 | 0.00 | 0.00 | 0.00 | 38 | 1009.8 |
| 20260510172833 | 83 | 150 | 4.0 | 9.0 | 0.00 | 0.00 | 0.00 | 39 | 1009.9 |
| 20260510172333 | 83 | 207 | 3.0 | 9.0 | 0.00 | 0.00 | 0.00 | 38 | 1009.9 |
| 20260510170833 | 83 | 200 | 2.0 | 5.0 | 0.00 | 0.00 | 0.00 | 40 | 1009.8 |
| 20260510170332 | 83 | 213 | 2.0 | 7.0 | 0.00 | 0.00 | 0.00 | 40 | 1009.9 |
| 20260510165328 | 83 | 215 | 2.0 | 9.0 | 0.00 | 0.00 | 0.00 | 40 | 1010.0 |
| 20260510164828 | 83 | 212 | 2.0 | 8.0 | 0.00 | 0.00 | 0.00 | 39 | 1010.0 |
| 20260510164327 | 83 | 205 | 2.0 | 6.0 | 0.00 | 0.00 | 0.00 | 40 | 1010.1 |
| 20260510163827 | 83 | 203 | 2.0 | 8.0 | 0.00 | 0.00 | 0.00 | 41 | 1010.1 |
| 20260510163329 | 83 | 207 | 2.0 | 8.0 | 0.00 | 0.00 | 0.00 | 41 | 1010.2 |
| 20260510162327 | 82 | 190 | 2.0 | 9.0 | 0.00 | 0.00 | 0.00 | 42 | 1010.2 |
| 20260510161823 | 82 | 210 | 2.0 | 10.0 | 0.00 | 0.00 | 0.00 | 43 | 1010.1 |
| 20260510161324 | 82 | 201 | 3.0 | 10.0 | 0.00 | 0.00 | 0.00 | 42 | 1010.2 |
| 20260510160823 | 81 | 235 | 2.0 | 5.0 | 0.00 | 0.00 | 0.00 | 44 | 1010.2 |
| 20260510160321 | 81 | 264 | 2.0 | 6.0 | 0.00 | 0.00 | 0.00 | 44 | 1010.2 |
| 20260510155821 | 80 | 194 | 2.0 | 8.0 | 0.00 | 0.00 | 0.00 | 43 | 1010.3 |
| 20260510154818 | 80 | 308 | 2.0 | 7.0 | 0.00 | 0.00 | 0.00 | 45 | 1010.3 |
| 20260510154316 | 80 | 297 | 3.0 | 7.0 | 0.00 | 0.00 | 0.00 | 44 | 1010.4 |
| 20260510153315 | 79 | 162 | 1.0 | 6.0 | 0.00 | 0.00 | 0.00 | 47 | 1010.5 |
| 20260510152815 | 79 | 243 | 1.0 | 8.0 | 0.00 | 0.00 | 0.00 | 49 | 1010.5 |
| 20260510152312 | 78 | 183 | 2.0 | 8.0 | 0.00 | 0.00 | 0.00 | 49 | 1010.5 |
| 20260510151308 | 78 | 233 | 2.0 | 7.0 | 0.00 | 0.00 | 0.00 | 52 | 1010.6 |
| 20260510150810 | 78 | 224 | 3.0 | 8.0 | 0.00 | 0.00 | 0.00 | 52 | 1010.5 |
| 20260510145810 | 78 | 205 | 2.0 | 8.0 | 0.00 | 0.00 | 0.00 | 51 | 1010.4 |
| 20260510145306 | 77 | 221 | 1.0 | 7.0 | 0.00 | 0.00 | 0.00 | 53 | 1010.3 |
| 20260510144805 | 77 | 190 | 1.0 | 5.0 | 0.00 | 0.00 | 0.00 | 53 | 1010.2 |
| 20260510144303 | 76 | 238 | 2.0 | 6.0 | 0.00 | 0.00 | 0.00 | 54 | 1010.1 |
| 20260510143804 | 75 | 211 | 2.0 | 6.0 | 0.00 | 0.00 | 0.00 | 54 | 1010.1 |
| 20260510143304 | 75 | 207 | 2.0 | 8.0 | 0.00 | 0.00 | 0.00 | 55 | 1009.9 |
| 20260510142804 | 75 | 197 | 2.0 | 8.0 | 0.00 | 0.00 | 0.00 | 55 | 1009.9 |
| 20260510142306 | 75 | 208 | 2.0 | 5.0 | 0.00 | 0.00 | 0.00 | 55 | 1009.9 |
| 20260510141803 | 75 | 210 | 1.0 | 5.0 | 0.00 | 0.00 | 0.00 | 55 | 1009.9 |
| 20260510141300 | 74 | 224 | 0.0 | 2.0 | 0.00 | 0.00 | 0.00 | 57 | 1009.9 |
| 20260510140800 | 74 | 224 | 0.0 | 3.0 | 0.00 | 0.00 | 0.00 | 59 | 1009.9 |
| 20260510140300 | 73 | 325 | 0.0 | 3.0 | 0.00 | 0.00 | 0.00 | 59 | 1010.0 |
| 20260510135759 | 73 | 318 | 0.0 | 3.0 | 0.00 | 0.00 | 0.00 | 59 | 1010.0 |
| 20260510135305 | 73 | 309 | 0.0 | 3.0 | 0.00 | 0.00 | 0.00 | 58 | 1010.0 |
| 20260510134753 | 72 | 191 | 0.0 | 3.0 | 0.00 | 0.00 | 0.00 | 61 | 1010.1 |
| 20260510134253 | 71 | 195 | 0.0 | 3.0 | 0.00 | 0.00 | 0.00 | 65 | 1010.2 |
| 20260510133754 | 71 | 59 | 0.0 | 2.0 | 0.00 | 0.00 | 0.00 | 66 | 1010.2 |
| 20260510133253 | 70 | 218 | 0.0 | 2.0 | 0.00 | 0.00 | 0.00 | 68 | 1010.2 |
| 20260510132753 | 70 | 190 | 0.0 | 2.0 | 0.00 | 0.00 | 0.00 | 68 | 1010.2 |
| 20260510132254 | 70 | 200 | 0.0 | 2.0 | 0.00 | 0.00 | 0.00 | 69 | 1010.2 |
| 20260510131748 | 69 | 205 | 0.0 | 3.0 | 0.00 | 0.00 | 0.00 | 68 | 1010.2 |
| 20260510131248 | 69 | 219 | 0.0 | 4.0 | 0.00 | 0.00 | 0.00 | 68 | 1010.2 |
| 20260510130749 | 69 | 134 | 0.0 | 4.0 | 0.00 | 0.00 | 0.00 | 70 | 1010.1 |
| 20260510130249 | 68 | 195 | 0.0 | 1.0 | 0.00 | 0.00 | 0.00 | 70 | 1010.2 |
| 20260510125747 | 68 | 210 | 0.0 | 1.0 | 0.00 | 0.00 | 0.00 | 72 | 1010.4 |
| 20260510125247 | 68 | 200 | 0.0 | 2.0 | 0.00 | 0.00 | 0.00 | 73 | 1010.4 |
| 20260510124745 | 67 | 190 | 0.0 | 2.0 | 0.00 | 0.00 | 0.00 | 73 | 1010.5 |
| 20260510124243 | 67 | 188 | 0.0 | 1.0 | 0.00 | 0.00 | 0.00 | 75 | 1010.5 |
| 20260510123744 | 66 | 186 | 0.0 | 1.0 | 0.00 | 0.00 | 0.00 | 75 | 1010.5 |
| 20260510122741 | 65 | 111 | 0.0 | 2.0 | 0.00 | 0.00 | 0.00 | 78 | 1010.4 |
| 20260510121739 | 64 | 94 | 0.0 | 2.0 | 0.00 | 0.00 | 0.00 | 79 | 1010.4 |
| 20260510121237 | 63 | 77 | 0.0 | 3.0 | 0.00 | 0.00 | 0.00 | 80 | 1010.3 |
| 20260510120739 | 63 | 15 | 0.0 | 3.0 | 0.00 | 0.00 | 0.00 | 80 | 1010.3 |
| 20260510120237 | 63 | 111 | 0.0 | 1.0 | 0.00 | 0.00 | 0.00 | 80 | 1010.3 |
| 20260510115234 | 62 | 75 | 0.0 | 2.0 | 0.00 | 0.00 | 0.00 | 83 | 1010.2 |
| 20260510114731 | 62 | 89 | 0.0 | 2.0 | 0.00 | 0.00 | 0.00 | 82 | 1010.1 |
| 20260510114231 | 62 | 120 | 0.0 | 1.0 | 0.00 | 0.00 | 0.00 | 83 | 1010.2 |
| 20260510113231 | 61 | 122 | 0.0 | 0.0 | 0.00 | 0.00 | 0.00 | 85 | 1010.0 |
| 20260510112729 | 61 | 122 | 0.0 | 0.0 | 0.00 | 0.00 | 0.00 | 86 | 1009.9 |
| 20260510112229 | 60 | 120 | 0.0 | 1.0 | 0.00 | 0.00 | 0.00 | 87 | 1009.7 |
| 20260510111727 | 59 | 100 | 0.0 | 1.0 | 0.00 | 0.00 | 0.00 | 89 | 1009.6 |
| 20260510111225 | 58 | 101 | 0.0 | 1.0 | 0.00 | 0.00 | 0.00 | 88 | 1009.6 |
| 20260510110723 | 59 | 86 | 0.0 | 0.0 | 0.00 | 0.00 | 0.00 | 88 | 1009.4 |
| 20260510105721 | 58 | 346 | 0.0 | 0.0 | 0.00 | 0.00 | 0.00 | 93 | 1009.2 |
| 20260510105220 | 57 | 346 | 0.0 | 0.0 | 0.00 | 0.00 | 0.00 | 93 | 1009.1 |
| 20260510104716 | 56 | 346 | 0.0 | 0.0 | 0.00 | 0.00 | 0.00 | 93 | 1009.1 |
| 20260510103215 | 55 | 346 | 0.0 | 0.0 | 0.00 | 0.00 | 0.00 | 92 | 1008.9 |
| 20260510102713 | 55 | 346 | 0.0 | 0.0 | 0.00 | 0.00 | 0.00 | 92 | 1008.9 |
| 20260510102214 | 55 | 346 | 0.0 | 0.0 | 0.00 | 0.00 | 0.00 | 91 | 1008.7 |
| 20260510101706 | 56 | 346 | 0.0 | 0.0 | 0.00 | 0.00 | 0.00 | 91 | 1008.6 |
| 20260510101206 | 56 | 346 | 0.0 | 0.0 | 0.00 | 0.00 | 0.00 | 92 | 1008.6 |
| 20260510100704 | 56 | 346 | 0.0 | 0.0 | 0.00 | 0.00 | 0.00 | 92 | 1008.5 |
| 20260510100202 | 56 | 345 | 0.0 | 0.0 | 0.00 | 0.00 | 0.00 | 91 | 1008.6 |
| 20260510095703 | 56 | 346 | 0.0 | 0.0 | 0.00 | 0.00 | 0.00 | 92 | 1008.5 |
| 20260510095159 | 56 | 346 | 0.0 | 0.0 | 0.00 | 0.00 | 0.00 | 91 | 1008.6 |
| 20260510094657 | 56 | 346 | 0.0 | 0.0 | 0.00 | 0.00 | 0.00 | 91 | 1008.5 |
| 20260510094158 | 56 | 346 | 0.0 | 0.0 | 0.00 | 0.00 | 0.00 | 91 | 1008.6 |
| 20260510093657 | 56 | 345 | 0.0 | 0.0 | 0.00 | 0.00 | 0.00 | 91 | 1008.5 |
| 20260510093155 | 56 | 346 | 0.0 | 0.0 | 0.00 | 0.00 | 0.00 | 91 | 1008.5 |
| 20260510092655 | 56 | 346 | 0.0 | 0.0 | 0.00 | 0.00 | 0.00 | 90 | 1008.5 |
| 20260510092151 | 56 | 346 | 0.0 | 0.0 | 0.00 | 0.00 | 0.00 | 90 | 1008.5 |
| 20260510091651 | 56 | 346 | 0.0 | 0.0 | 0.00 | 0.00 | 0.00 | 90 | 1008.5 |
| 20260510084640 | 57 | 346 | 0.0 | 0.0 | 0.00 | 0.00 | 0.00 | 90 | 1008.3 |
| 20260510084139 | 57 | 346 | 0.0 | 0.0 | 0.00 | 0.00 | 0.00 | 90 | 1008.3 |
| 20260510083637 | 58 | 346 | 0.0 | 0.0 | 0.00 | 0.00 | 0.00 | 89 | 1008.2 |
| 20260510083137 | 58 | 346 | 0.0 | 2.0 | 0.00 | 0.00 | 0.00 | 90 | 1008.2 |
| 20260510081632 | 57 | 15 | 0.0 | 1.0 | 0.00 | 0.00 | 0.00 | 90 | 1008.0 |
| 20260510080628 | 57 | 334 | 0.0 | 0.0 | 0.00 | 0.00 | 0.00 | 90 | 1007.7 |
| 20260510080129 | 57 | 334 | 0.0 | 0.0 | 0.00 | 0.00 | 0.00 | 90 | 1007.7 |
| 20260510074623 | 57 | 75 | 0.0 | 1.0 | 0.00 | 0.00 | 0.00 | 90 | 1007.4 |
| 20260510074122 | 57 | 100 | 0.0 | 0.0 | 0.00 | 0.00 | 0.00 | 90 | 1007.5 |
| 20260510073620 | 57 | 100 | 0.0 | 0.0 | 0.00 | 0.00 | 0.00 | 89 | 1007.5 |
| 20260510073123 | 57 | 101 | 0.0 | 0.0 | 0.00 | 0.00 | 0.00 | 89 | 1007.5 |
| 20260510072622 | 58 | 100 | 0.0 | 0.0 | 0.00 | 0.00 | 0.00 | 89 | 1007.5 |
| 20260510071616 | 58 | 101 | 0.0 | 0.0 | 0.00 | 0.00 | 0.00 | 89 | 1007.4 |
| 20260510071117 | 58 | 100 | 0.0 | 0.0 | 0.00 | 0.00 | 0.00 | 89 | 1007.3 |
| 20260510065618 | 58 | 100 | 0.0 | 0.0 | 0.00 | 0.00 | 0.00 | 88 | 1007.1 |
| 20260510065117 | 58 | 101 | 0.0 | 0.0 | 0.00 | 0.00 | 0.00 | 88 | 1007.1 |
| 20260510064611 | 59 | 100 | 0.0 | 0.0 | 0.00 | 0.00 | 0.00 | 88 | 1007.1 |
| 20260510064107 | 59 | 101 | 0.0 | 0.0 | 0.00 | 0.00 | 0.00 | 88 | 1007.2 |
| 20260510063607 | 59 | 101 | 0.0 | 1.0 | 0.00 | 0.00 | 0.00 | 87 | 1007.1 |
| 20260510063105 | 59 | 100 | 0.0 | 1.0 | 0.00 | 0.00 | 0.00 | 87 | 1007.0 |
| 20260510062605 | 59 | 71 | 0.0 | 1.0 | 0.00 | 0.00 | 0.00 | 87 | 1007.1 |
| 20260510062059 | 59 | 70 | 0.0 | 4.0 | 0.00 | 0.00 | 0.00 | 87 | 1007.1 |
| 20260510061557 | 60 | 32 | 1.0 | 4.0 | 0.00 | 0.00 | 0.00 | 87 | 1007.0 |
| 20260510061056 | 60 | 15 | 1.0 | 4.0 | 0.00 | 0.00 | 0.00 | 87 | 1007.2 |
| 20260510060556 | 60 | 103 | 1.0 | 4.0 | 0.00 | 0.00 | 0.00 | 87 | 1007.0 |
| 20260510060056 | 60 | 33 | 1.0 | 4.0 | 0.00 | 0.00 | 0.00 | 87 | 1007.1 |
| 20260510054554 | 60 | 27 | 1.0 | 4.0 | 0.00 | 0.00 | 0.00 | 86 | 1007.1 |
| 20260510053551 | 60 | 30 | 1.0 | 5.0 | 0.00 | 0.00 | 0.00 | 86 | 1007.0 |
| 20260510053050 | 60 | 22 | 0.0 | 4.0 | 0.00 | 0.00 | 0.00 | 86 | 1007.1 |
| 20260510052550 | 60 | 26 | 0.0 | 1.0 | 0.00 | 0.00 | 0.00 | 86 | 1007.1 |
| 20260510052044 | 60 | 23 | 0.0 | 1.0 | 0.00 | 0.00 | 0.00 | 86 | 1007.1 |
| 20260510051542 | 60 | 30 | 0.0 | 1.0 | 0.00 | 0.00 | 0.00 | 86 | 1007.0 |
| 20260510051043 | 60 | 94 | 0.0 | 0.0 | 0.00 | 0.00 | 0.00 | 85 | 1007.0 |
| 20260510050543 | 60 | 94 | 0.0 | 0.0 | 0.00 | 0.00 | 0.00 | 85 | 1007.0 |
| 20260510045545 | 61 | 95 | 0.0 | 1.0 | 0.00 | 0.00 | 0.00 | 84 | 1007.0 |
| 20260510045037 | 61 | 95 | 0.0 | 1.0 | 0.00 | 0.00 | 0.00 | 84 | 1007.0 |
| 20260510044538 | 61 | 94 | 0.0 | 1.0 | 0.00 | 0.00 | 0.00 | 84 | 1007.1 |
| 20260510044036 | 61 | 109 | 0.0 | 0.0 | 0.00 | 0.00 | 0.00 | 83 | 1007.2 |
| 20260510043537 | 61 | 108 | 0.0 | 0.0 | 0.00 | 0.00 | 0.00 | 83 | 1007.2 |
| 20260510043034 | 61 | 91 | 0.0 | 1.0 | 0.00 | 0.00 | 0.00 | 83 | 1007.2 |
| 20260510042030 | 61 | 93 | 0.0 | 1.0 | 0.00 | 0.00 | 0.00 | 83 | 1007.2 |
| 20260510041530 | 62 | 77 | 0.0 | 1.0 | 0.00 | 0.00 | 0.00 | 82 | 1007.2 |
| 20260510041032 | 62 | 76 | 0.0 | 1.0 | 0.00 | 0.00 | 0.00 | 81 | 1007.1 |
| 20260510040027 | 62 | 76 | 0.0 | 0.0 | 0.00 | 0.00 | 0.00 | 80 | 1007.1 |
| 20260510035528 | 63 | 75 | 0.0 | 4.0 | 0.00 | 0.00 | 0.00 | 80 | 1007.0 |
| 20260510035029 | 63 | 73 | 1.0 | 4.0 | 0.00 | 0.00 | 0.00 | 79 | 1007.0 |
| 20260510034527 | 63 | 71 | 1.0 | 4.0 | 0.00 | 0.00 | 0.00 | 78 | 1006.9 |
| 20260510034024 | 63 | 94 | 1.0 | 4.0 | 0.00 | 0.00 | 0.00 | 78 | 1006.9 |
| 20260510033525 | 64 | 102 | 1.0 | 4.0 | 0.00 | 0.00 | 0.00 | 77 | 1006.9 |
| 20260510033026 | 64 | 103 | 1.0 | 4.0 | 0.00 | 0.00 | 0.00 | 77 | 1006.9 |
| 20260510032523 | 64 | 102 | 1.0 | 4.0 | 0.00 | 0.00 | 0.00 | 76 | 1006.9 |
| 20260510032024 | 64 | 94 | 2.0 | 6.0 | 0.00 | 0.00 | 0.00 | 76 | 1006.9 |
| 20260510031523 | 65 | 89 | 1.0 | 6.0 | 0.00 | 0.00 | 0.00 | 75 | 1006.8 |
| 20260510031020 | 65 | 83 | 1.0 | 3.0 | 0.00 | 0.00 | 0.00 | 75 | 1006.9 |
| 20260510030518 | 65 | 91 | 1.0 | 5.0 | 0.00 | 0.00 | 0.00 | 74 | 1006.8 |
| 20260510030018 | 65 | 30 | 1.0 | 5.0 | 0.00 | 0.00 | 0.00 | 74 | 1006.8 |
| 20260510025020 | 66 | 97 | 0.0 | 1.0 | 0.00 | 0.00 | 0.00 | 73 | 1006.7 |
| 20260510024519 | 66 | 98 | 0.0 | 1.0 | 0.00 | 0.00 | 0.00 | 73 | 1006.7 |
| 20260510024017 | 66 | 99 | 0.0 | 1.0 | 0.00 | 0.00 | 0.00 | 72 | 1006.6 |
| 20260510023509 | 67 | 99 | 0.0 | 1.0 | 0.00 | 0.00 | 0.00 | 72 | 1006.6 |
| 20260510023007 | 67 | 109 | 0.0 | 1.0 | 0.00 | 0.00 | 0.00 | 71 | 1006.6 |
| 20260510022007 | 67 | 109 | 0.0 | 0.0 | 0.00 | 0.00 | 0.00 | 71 | 1006.5 |
| 20260510021006 | 67 | 109 | 0.0 | 0.0 | 0.00 | 0.00 | 0.00 | 71 | 1006.4 |
| 20260510015957 | 67 | 109 | 0.0 | 0.0 | 0.00 | 0.00 | 0.00 | 70 | 1006.4 |
| 20260510015458 | 67 | 108 | 0.0 | 0.0 | 0.00 | 0.00 | 0.00 | 71 | 1006.3 |
| 20260510014956 | 67 | 109 | 0.0 | 0.0 | 0.00 | 0.00 | 0.00 | 71 | 1006.3 |
| 20260510014457 | 67 | 108 | 0.0 | 1.0 | 0.00 | 0.00 | 0.00 | 70 | 1006.3 |
| 20260510013958 | 67 | 108 | 0.0 | 1.0 | 0.00 | 0.00 | 0.00 | 70 | 1006.1 |
| 20260510013459 | 67 | 195 | 0.0 | 1.0 | 0.00 | 0.00 | 0.00 | 69 | 1006.1 |
| 20260510012457 | 68 | 101 | 0.0 | 0.0 | 0.00 | 0.00 | 0.00 | 68 | 1005.9 |
| 20260510012000 | 68 | 101 | 0.0 | 0.0 | 0.00 | 0.00 | 0.00 | 67 | 1005.9 |
| 20260510011457 | 68 | 194 | 0.0 | 3.0 | 0.00 | 0.00 | 0.00 | 67 | 1005.7 |
| 20260510010956 | 68 | 167 | 0.0 | 3.0 | 0.00 | 0.00 | 0.00 | 67 | 1005.7 |
| 20260510010457 | 68 | 91 | 1.0 | 5.0 | 0.00 | 0.00 | 0.00 | 67 | 1005.7 |
| 20260510005956 | 69 | 101 | 2.0 | 5.0 | 0.00 | 0.00 | 0.00 | 67 | 1005.6 |
| 20260510005459 | 69 | 79 | 2.0 | 5.0 | 0.00 | 0.00 | 0.00 | 66 | 1005.6 |
| 20260510004954 | 69 | 64 | 1.0 | 5.0 | 0.00 | 0.00 | 0.00 | 66 | 1005.5 |
| 20260510003954 | 69 | 204 | 0.0 | 0.0 | 0.00 | 0.00 | 0.00 | 62 | 1005.4 |
| 20260510003452 | 69 | 204 | 0.0 | 0.0 | 0.00 | 0.00 | 0.00 | 61 | 1005.3 |
| 20260510002449 | 70 | 204 | 0.0 | 0.0 | 0.00 | 0.00 | 0.00 | 60 | 1005.3 |
| 20260510001951 | 70 | 203 | 0.0 | 0.0 | 0.00 | 0.00 | 0.00 | 59 | 1005.2 |
| 20260510001446 | 71 | 204 | 0.0 | 0.0 | 0.00 | 0.00 | 0.00 | 58 | 1005.2 |
| 20260510000946 | 71 | 204 | 0.0 | 0.0 | 0.00 | 0.00 | 0.00 | 58 | 1005.1 |
| 20260510000444 | 72 | 210 | 0.0 | 1.0 | 0.00 | 0.00 | 0.00 | 57 | 1005.1 |
| 20260509235443 | 72 | 210 | 0.0 | 3.0 | 0.00 | 0.00 | 0.00 | 55 | 1005.1 |
| 20260509234443 | 73 | 214 | 0.0 | 2.0 | 0.00 | 0.00 | 0.00 | 55 | 1004.9 |
| 20260509233938 | 73 | 204 | 0.0 | 4.0 | 0.00 | 0.00 | 0.00 | 54 | 1004.9 |
| 20260509233439 | 73 | 215 | 1.0 | 4.0 | 0.00 | 0.00 | 0.00 | 54 | 1004.9 |
| 20260509232438 | 74 | 217 | 1.0 | 5.0 | 0.00 | 0.00 | 0.00 | 54 | 1004.9 |
| 20260509231938 | 74 | 211 | 0.0 | 4.0 | 0.00 | 0.00 | 0.00 | 53 | 1004.9 |
| 20260509231441 | 74 | 248 | 1.0 | 4.0 | 0.00 | 0.00 | 0.00 | 54 | 1004.8 |
| 20260509230935 | 74 | 219 | 1.0 | 4.0 | 0.00 | 0.00 | 0.00 | 54 | 1004.8 |
| 20260509230436 | 74 | 174 | 1.0 | 4.0 | 0.00 | 0.00 | 0.00 | 54 | 1004.9 |
| 20260509225935 | 74 | 203 | 1.0 | 4.0 | 0.00 | 0.00 | 0.00 | 54 | 1004.8 |
| 20260509225434 | 74 | 128 | 2.0 | 6.0 | 0.00 | 0.00 | 0.00 | 54 | 1004.8 |
| 20260509224934 | 74 | 195 | 2.0 | 6.0 | 0.00 | 0.00 | 0.00 | 53 | 1004.8 |
| 20260509224436 | 74 | 229 | 1.0 | 5.0 | 0.00 | 0.00 | 0.00 | 53 | 1004.9 |
| 20260509223930 | 74 | 221 | 1.0 | 5.0 | 0.00 | 0.00 | 0.00 | 53 | 1004.8 |
| 20260509223431 | 74 | 181 | 1.0 | 5.0 | 0.00 | 0.00 | 0.00 | 53 | 1004.8 |
| 20260509222431 | 74 | 195 | 2.0 | 8.0 | 0.00 | 0.00 | 0.00 | 53 | 1005.1 |
| 20260509221433 | 74 | 215 | 3.0 | 8.0 | 0.00 | 0.00 | 0.00 | 53 | 1005.1 |
| 20260509220929 | 74 | 200 | 2.0 | 8.0 | 0.00 | 0.00 | 0.00 | 52 | 1005.1 |
| 20260509220426 | 74 | 179 | 2.0 | 6.0 | 0.00 | 0.00 | 0.00 | 52 | 1004.9 |
| 20260509215428 | 74 | 217 | 3.0 | 8.0 | 0.00 | 0.00 | 0.00 | 52 | 1004.9 |
| 20260509214927 | 75 | 217 | 3.0 | 8.0 | 0.00 | 0.00 | 0.00 | 51 | 1004.9 |
| 20260509213923 | 76 | 212 | 4.0 | 10.0 | 0.00 | 0.00 | 0.00 | 50 | 1004.9 |
| 20260509213424 | 76 | 201 | 3.0 | 8.0 | 0.00 | 0.00 | 0.00 | 49 | 1004.8 |
| 20260509212922 | 76 | 231 | 3.0 | 9.0 | 0.00 | 0.00 | 0.00 | 51 | 1004.9 |
| 20260509212423 | 75 | 212 | 3.0 | 9.0 | 0.00 | 0.00 | 0.00 | 51 | 1004.9 |
| 20260509211922 | 76 | 173 | 3.0 | 9.0 | 0.00 | 0.00 | 0.00 | 51 | 1004.9 |
| 20260509210418 | 76 | 266 | 3.0 | 9.0 | 0.00 | 0.00 | 0.00 | 50 | 1004.8 |
| 20260509205419 | 76 | 96 | 4.0 | 13.0 | 0.00 | 0.00 | 0.00 | 51 | 1004.8 |
| 20260509204919 | 75 | 226 | 6.0 | 14.0 | 0.00 | 0.00 | 0.00 | 51 | 1004.8 |
| 20260509204420 | 75 | 174 | 5.0 | 14.0 | 0.00 | 0.00 | 0.00 | 51 | 1004.7 |
| 20260509203914 | 76 | 233 | 4.0 | 14.0 | 0.00 | 0.00 | 0.00 | 51 | 1004.7 |
| 20260509203416 | 75 | 198 | 3.0 | 14.0 | 0.00 | 0.00 | 0.00 | 52 | 1004.6 |
| 20260509202914 | 74 | 167 | 3.0 | 12.0 | 0.00 | 0.00 | 0.00 | 53 | 1004.6 |
| 20260509202415 | 73 | 204 | 4.0 | 12.0 | 0.00 | 0.00 | 0.00 | 54 | 1004.7 |
| 20260509201916 | 74 | 208 | 3.0 | 8.0 | 0.00 | 0.00 | 0.00 | 54 | 1004.8 |
| 20260509201416 | 74 | 198 | 4.0 | 10.0 | 0.00 | 0.00 | 0.00 | 53 | 1004.9 |
| 20260509200910 | 74 | 200 | 5.0 | 10.0 | 0.00 | 0.00 | 0.00 | 52 | 1005.0 |
| 20260509200410 | 75 | 211 | 4.0 | 10.0 | 0.00 | 0.00 | 0.00 | 51 | 1005.1 |
| 20260509195911 | 75 | 145 | 4.0 | 9.0 | 0.00 | 0.00 | 0.00 | 52 | 1005.2 |
| 20260509195410 | 75 | 174 | 3.0 | 7.0 | 0.00 | 0.00 | 0.00 | 52 | 1005.3 |
| 20260509194412 | 74 | 241 | 3.0 | 8.0 | 0.00 | 0.00 | 0.00 | 53 | 1005.5 |
| 20260509193907 | 74 | 204 | 3.0 | 8.0 | 0.00 | 0.00 | 0.00 | 54 | 1005.6 |
| 20260509192909 | 73 | 268 | 4.0 | 9.0 | 0.00 | 0.00 | 0.00 | 55 | 1005.8 |
| 20260509192406 | 72 | 302 | 4.0 | 9.0 | 0.00 | 0.00 | 0.00 | 55 | 1005.9 |
| 20260509191907 | 72 | 197 | 3.0 | 9.0 | 0.00 | 0.00 | 0.00 | 56 | 1006.0 |
| 20260509191409 | 72 | 203 | 3.0 | 11.0 | 0.00 | 0.00 | 0.00 | 55 | 1005.9 |
| 20260509190902 | 72 | 180 | 4.0 | 11.0 | 0.00 | 0.00 | 0.00 | 55 | 1005.8 |